Preview of NWS' New Version of Forecast
This preview is not operational and should not be used for support decisions.

Regional Weather Roundup (RWR)

Issued by National Weather Service (NWS)

                            
000
ASUS46 KSEW 210310
RWRWA 

WASHINGTON REGIONAL WEATHER ROUNDUP
NATIONAL WEATHER SERVICE SEATTLE WA
800 PM PDT SAT APR 20 2019

NOTE:"FAIR" INDICATES FEW OR NO CLOUDS BELOW 12,000 FEET WITH NO 
SIGNIFICANT WEATHER AND/OR OBSTRUCTIONS TO VISIBILITY.

WAZ507-509-555>559-210400-
SEATTLE, TACOMA, EVERETT, AND VICINITY
  
CITY           SKY/WX    TMP DP  RH WIND       PRES   REMARKS
EVERETT        CLEAR     54  43  66 CALM      30.10R                  
BOEING FIELD   PTCLDY    58  42  55 CALM      30.09R                  
RENTON         CLEAR     56  45  66 CALM      30.08R HAZE             
SEATAC AIRPORT PTCLDY    55  43  63 W5        30.09R                  
JBLM-MCCHORD   CLEAR     55  48  76 E5        30.09R                  
PUYALLUP       FAIR      54  46  76 CALM      30.09R                  
BREMERTON      MOCLDY    53  46  77 CALM      30.09R                  
JBLM-FT LEWIS  PTCLDY    57  49  73 CALM      30.08R                  
TACOMA NARROWS MOCLDY    56  43  61 CALM      30.09R                  
$$
 
WAZ001-503-506-510-514-515-210400-
NORTH INTERIOR
  
CITY           SKY/WX    TMP DP  RH WIND       PRES   REMARKS
BELLINGHAM     CLEAR     53  41  63 S5        30.07R                  
FRIDAY HARBOR  CLEAR     50  41  71 SW5       30.09R                  
EASTSOUND      CLEAR     50  45  81 CALM      30.07R                  
PORT ANGELES   CLEAR     51  43  74 W7        30.10R                  
EDIZ HOOK      FAIR      51  46  81 W12       30.09R                  
PORT TOWNSEND  FAIR      52  45  76 CALM      30.08R                  
NAS WHIDBEY    PTCLDY    54  42  64 SW6       30.12R                  
ARLINGTON      NOT AVBL                                               
BURLINGTON     CLEAR     54  43  66 CALM      30.08S                  
$$
 
WAZ020-022-039-040-504-511-512-210400-
SOUTHWEST INTERIOR
  
CITY           SKY/WX    TMP DP  RH WIND       PRES   REMARKS
SHELTON        CLOUDY    58  45  62 SW6       30.06R                  
OLYMPIA        CLOUDY    58  44  60 NW3       30.09R                  
CHEHALIS       CLOUDY    59  48  67 W6G12     30.09R                  
KELSO          MOCLDY    55  46  71 VRB7      30.11R                  
VANCOUVER      CLEAR     61  44  53 NW8       30.06R                  
SCAPPOOSE, OR  CLEAR     60  46  59 VRB6      30.07R                  
PORTLAND, OR   PTCLDY    60  44  55 NW10      30.07R                  
$$
 
WAZ021-516-517-210400-
WASHINGTON COAST
  
CITY           SKY/WX    TMP DP  RH WIND       PRES   REMARKS
FORKS          PTCLDY    50  45  83 NW6       30.12R                  
HOQUIAM        CLEAR     52  47  83 W9        30.12R                  
ASTORIA, OR    CLOUDY    51  44  77 W8        30.14R                  
$$
 
WAZ019-023-024-040-567>569-210400-
CASCADE MOUNTAINS AND COLUMBIA GORGE
  
CITY           SKY/WX    TMP DP  RH WIND       PRES   REMARKS
STAMPEDE PASS  CLOUDY    39  36  89 VRB6      30.04R                  
TROUTDALE, OR  CLEAR     61  42  49 NW7       30.06R                  
HOOD RIVER, OR CLEAR     57  41  54 MISG      30.01R                  
THE DALLES, OR MOCLDY    61  41  47 W12       29.98R                  
$$

WAZ026-027-041>044-520-521-210400-
EAST SLOPES
  
CITY           SKY/WX    TMP DP  RH WIND       PRES   REMARKS
OMAK           CLEAR     57  21  24 N14       29.95R                  
WENATCHEE      CLEAR     62  32  32 NW14      29.92R                  
ELLENSBURG     CLEAR     53  36  52 NW25G35   29.96R                  
YAKIMA         CLEAR     61  31  32 NW14      29.94R                  
SUNNYSIDE ARPT MOCLDY    56  44  64 N3        29.92R                  
YAKIMA TC      FAIR      60  31  33 N9        29.93R                  
$$

WAZ028-034-035-210400-
COLUMBIA BASIN
  
CITY           SKY/WX    TMP DP  RH WIND       PRES   REMARKS
EPHRATA        CLEAR     59  28  30 N8        29.91R                  
MOSES LAKE     CLEAR     57  31  37 N9        29.92R                  
PASCO          PTCLDY    61  41  47 NW3       29.91R                  
RICHLAND ARPT  MOCLDY    60  37  42 CALM      29.91                   
HERMISTON, OR  PTCLDY    58  47  66 W9        29.92R                  
$$

WAZ036>038-210400-
NORTHEAST WASHINGTON
  
CITY           SKY/WX    TMP DP  RH WIND       PRES   REMARKS
SPOKANE GEIGER PTCLDY    57  31  37 NW5       29.89R                  
SPOKANE FELTS  PTCLDY    55  42  61 CALM      29.89R                  
FAIRCHILD AFB  PTCLDY    56  33  42 CALM      29.89R                  
COEURDALENE,ID MOCLDY    48  45  89 CALM      29.91R                  
DEER PARK      CLEAR     55  30  38 NW6       29.89R                  
$$

WAZ029>033-210400-
SOUTHEAST WASHINGTON
  
CITY           SKY/WX    TMP DP  RH WIND       PRES   REMARKS
PULLMAN        MOCLDY    52  43  71 CALM      29.92R                  
LEWISTON, ID   CLOUDY    57  43  59 W5        29.90R                  
WALLA WALLA    CLEAR     56  48  74 S8        29.93R                  
PENDLETON, OR  CLEAR     56  43  61 S3        29.93R                  
$$